Previsão horária em Juryszewo

Hoje, 23 Junho, Quarta-feira

Tempo Temperatura Precipitação Vento Pressão Humidade
00:00 +20°C° 0 mm 1 m/s 748 mmHg 96%
01:00 +20°C° 0 mm 1 m/s 748 mmHg 95%
02:00 +20°C° 0 mm 1 m/s 748 mmHg 96%
03:00 +19°C° 0 mm 2 m/s 748 mmHg 96%
04:00 +18°C° 0 mm 2 m/s 749 mmHg 97%
05:00 +19°C° 0 mm 2 m/s 749 mmHg 93%
06:00 +20°C° 0 mm 2 m/s 749 mmHg 90%
07:00 +21°C° 0 mm 2 m/s 750 mmHg 87%
08:00 +23°C° 0 mm 2 m/s 750 mmHg 83%
09:00 +24°C° 0 mm 2 m/s 750 mmHg 79%
10:00 +25°C° 0 mm 2 m/s 751 mmHg 75%
11:00 +25°C° 0 mm 3 m/s 751 mmHg 74%
12:00 +25°C° 0 mm 3 m/s 751 mmHg 74%
13:00 +25°C° 0 mm 3 m/s 751 mmHg 73%
14:00 +26°C° 0 mm 3 m/s 751 mmHg 72%
15:00 +26°C° 0 mm 3 m/s 751 mmHg 71%
16:00 +27°C° 0 mm 3 m/s 751 mmHg 70%
17:00 +26°C° 0.1 mm 2 m/s 751 mmHg 74%
18:00 +25°C° 0.1 mm 2 m/s 751 mmHg 78%
19:00 +24°C° 0.1 mm 2 m/s 751 mmHg 82%
20:00 +23°C° 0.3 mm 2 m/s 751 mmHg 86%
21:00 +21°C° 0.3 mm 2 m/s 751 mmHg 89%
22:00 +20°C° 0.3 mm 2 m/s 751 mmHg 93%
23:00 +19°C° 0.4 mm 2 m/s 751 mmHg 94%

Amanhã, 24 Junho, Quinta-feira

Tempo Temperatura Precipitação Vento Pressão Humidade
00:00 +19°C° 0.4 mm 2 m/s 751 mmHg 95%
01:00 +18°C° 0.4 mm 2 m/s 751 mmHg 96%
02:00 +18°C° 0.1 mm 2 m/s 751 mmHg 96%
03:00 +18°C° 0.1 mm 3 m/s 751 mmHg 96%
04:00 +17°C° 0.1 mm 3 m/s 751 mmHg 97%
05:00 +19°C° 0 mm 3 m/s 751 mmHg 92%
06:00 +20°C° 0 mm 3 m/s 751 mmHg 88%
07:00 +21°C° 0 mm 3 m/s 751 mmHg 84%
08:00 +22°C° 0.2 mm 3 m/s 751 mmHg 81%
09:00 +24°C° 0.2 mm 3 m/s 751 mmHg 78%
10:00 +26°C° 0.2 mm 2 m/s 751 mmHg 75%
11:00 +27°C° 0 mm 2 m/s 750 mmHg 71%
12:00 +28°C° 0 mm 2 m/s 750 mmHg 68%
13:00 +29°C° 0 mm 2 m/s 749 mmHg 64%
14:00 +29°C° 0.3 mm 2 m/s 749 mmHg 64%
15:00 +29°C° 0.3 mm 2 m/s 749 mmHg 63%
16:00 +30°C° 0.3 mm 2 m/s 748 mmHg 62%
17:00 +28°C° 0.1 mm 2 m/s 748 mmHg 68%
18:00 +27°C° 0.1 mm 2 m/s 748 mmHg 73%
19:00 +26°C° 0.1 mm 3 m/s 747 mmHg 79%
20:00 +24°C° 0.5 mm 3 m/s 747 mmHg 84%
21:00 +21°C° 0.5 mm 4 m/s 748 mmHg 90%
22:00 +19°C° 0.5 mm 4 m/s 748 mmHg 95%
23:00 +18°C° 0 mm 4 m/s 748 mmHg 96%

Depois de amanhã, 25 Junho, Sexta-feira

Tempo Temperatura Precipitação Vento Pressão Humidade
00:00 +17°C° 0 mm 4 m/s 748 mmHg 97%
01:00 +16°C° 0 mm 3 m/s 747 mmHg 97%
02:00 +16°C° 0 mm 3 m/s 747 mmHg 97%
03:00 +16°C° 0 mm 3 m/s 748 mmHg 98%
04:00 +14°C° 0 mm 3 m/s 748 mmHg 98%
05:00 +16°C° 0 mm 3 m/s 748 mmHg 96%
06:00 +16°C° 0 mm 3 m/s 748 mmHg 94%
07:00 +17°C° 0 mm 3 m/s 748 mmHg 92%
08:00 +18°C° 0 mm 3 m/s 748 mmHg 89%
09:00 +19°C° 0 mm 3 m/s 748 mmHg 86%
10:00 +19°C° 0 mm 3 m/s 748 mmHg 83%
11:00 +20°C° 0.1 mm 3 m/s 748 mmHg 82%
12:00 +20°C° 0.1 mm 3 m/s 748 mmHg 81%
13:00 +20°C° 0.1 mm 3 m/s 748 mmHg 80%
14:00 +20°C° 0 mm 3 m/s 748 mmHg 80%
15:00 +20°C° 0 mm 3 m/s 748 mmHg 81%
16:00 +20°C° 0 mm 3 m/s 748 mmHg 81%
17:00 +20°C° 0 mm 3 m/s 748 mmHg 83%
18:00 +19°C° 0 mm 3 m/s 748 mmHg 84%
19:00 +19°C° 0 mm 3 m/s 749 mmHg 85%
20:00 +18°C° 0 mm 3 m/s 749 mmHg 87%
21:00 +18°C° 0 mm 3 m/s 749 mmHg 89%
22:00 +17°C° 0 mm 3 m/s 749 mmHg 91%
23:00 +17°C° 0 mm 3 m/s 750 mmHg 91%

26 Junho, Sábado

Tempo Temperatura Precipitação Vento Pressão Humidade
00:00 +17°C° 0 mm 3 m/s 750 mmHg 92%
01:00 +17°C° 0 mm 3 m/s 750 mmHg 92%
02:00 +16°C° 0 mm 3 m/s 750 mmHg 92%
03:00 +16°C° 0 mm 3 m/s 750 mmHg 91%
04:00 +16°C° 0 mm 3 m/s 750 mmHg 90%
05:00 +16°C° 0 mm 3 m/s 751 mmHg 84%
06:00 +17°C° 0 mm 3 m/s 751 mmHg 78%
07:00 +18°C° 0 mm 4 m/s 751 mmHg 71%
08:00 +19°C° 0 mm 4 m/s 751 mmHg 65%
09:00 +21°C° 0 mm 4 m/s 751 mmHg 59%
10:00 +22°C° 0 mm 4 m/s 752 mmHg 53%
11:00 +23°C° 0 mm 4 m/s 752 mmHg 50%
12:00 +23°C° 0 mm 4 m/s 752 mmHg 48%
13:00 +25°C° 0 mm 4 m/s 752 mmHg 46%
14:00 +25°C° 0 mm 4 m/s 752 mmHg 45%
15:00 +25°C° 0 mm 4 m/s 751 mmHg 44%
16:00 +25°C° 0 mm 4 m/s 751 mmHg 43%
17:00 +24°C° 0 mm 3 m/s 751 mmHg 50%
18:00 +21°C° 0 mm 3 m/s 751 mmHg 56%
19:00 +20°C° 0 mm 2 m/s 751 mmHg 63%
20:00 +19°C° 0 mm 2 m/s 751 mmHg 62%
21:00 +17°C° 0 mm 2 m/s 752 mmHg 61%
22:00 +16°C° 0 mm 2 m/s 752 mmHg 61%
23:00 +16°C° 0 mm 2 m/s 752 mmHg 65%

27 Junho, Domingo

Tempo Temperatura Precipitação Vento Pressão Humidade
00:00 +15°C° 0 mm 2 m/s 752 mmHg 70%
01:00 +15°C° 0 mm 2 m/s 752 mmHg 75%
02:00 +14°C° 0 mm 1 m/s 752 mmHg 77%
03:00 +14°C° 0 mm 1 m/s 752 mmHg 80%
04:00 +13°C° 0 mm 0 m/s 752 mmHg 82%
05:00 +16°C° 0 mm 1 m/s 752 mmHg 77%
06:00 +19°C° 0 mm 1 m/s 753 mmHg 71%
07:00 +21°C° 0 mm 1 m/s 753 mmHg 65%
08:00 +22°C° 0 mm 1 m/s 753 mmHg 59%
09:00 +23°C° 0 mm 1 m/s 753 mmHg 53%
10:00 +25°C° 0 mm 2 m/s 753 mmHg 48%
11:00 +25°C° 0 mm 2 m/s 753 mmHg 46%
12:00 +26°C° 0 mm 2 m/s 753 mmHg 45%
13:00 +27°C° 0 mm 2 m/s 753 mmHg 44%
14:00 +27°C° 0 mm 2 m/s 752 mmHg 44%
15:00 +27°C° 0 mm 1 m/s 752 mmHg 45%
16:00 +27°C° 0 mm 1 m/s 752 mmHg 46%
17:00 +25°C° 0 mm 1 m/s 752 mmHg 52%
18:00 +24°C° 0 mm 1 m/s 752 mmHg 58%
19:00 +23°C° 0 mm 1 m/s 752 mmHg 64%
20:00 +22°C° 0 mm 1 m/s 752 mmHg 67%
21:00 +21°C° 0 mm 1 m/s 752 mmHg 69%
22:00 +19°C° 0 mm 1 m/s 752 mmHg 71%
23:00 +19°C° 0 mm 1 m/s 752 mmHg 72%

28 Junho, Segunda-feira

Tempo Temperatura Precipitação Vento Pressão Humidade
00:00 +18°C° 0 mm 1 m/s 752 mmHg 73%
01:00 +18°C° 0 mm 1 m/s 752 mmHg 74%
02:00 +18°C° 0 mm 1 m/s 752 mmHg 75%
03:00 +18°C° 0 mm 1 m/s 752 mmHg 76%
04:00 +18°C° 0 mm 1 m/s 752 mmHg 76%
05:00 +19°C° 0 mm 1 m/s 752 mmHg 71%
06:00 +21°C° 0 mm 1 m/s 753 mmHg 66%
07:00 +23°C° 0 mm 1 m/s 753 mmHg 61%
08:00 +24°C° 0 mm 1 m/s 753 mmHg 57%
09:00 +26°C° 0 mm 1 m/s 753 mmHg 53%
10:00 +27°C° 0 mm 1 m/s 753 mmHg 49%
11:00 +28°C° 0 mm 1 m/s 753 mmHg 47%
12:00 +28°C° 0 mm 1 m/s 752 mmHg 46%
13:00 +29°C° 0 mm 1 m/s 752 mmHg 44%
14:00 +29°C° 0 mm 1 m/s 752 mmHg 45%
15:00 +29°C° 0 mm 1 m/s 752 mmHg 45%
16:00 +29°C° 0 mm 1 m/s 752 mmHg 45%
17:00 +28°C° 0 mm 1 m/s 752 mmHg 51%
18:00 +27°C° 0 mm 2 m/s 751 mmHg 56%
19:00 +25°C° 0 mm 2 m/s 751 mmHg 61%
20:00 +24°C° 0 mm 2 m/s 751 mmHg 62%
21:00 +23°C° 0 mm 2 m/s 751 mmHg 62%
22:00 +23°C° 0 mm 2 m/s 751 mmHg 62%
23:00 +21°C° 0 mm 2 m/s 751 mmHg 65%
Mostrar mais

Necessitamos do seu Consentimento

A Meteoprog e os seus Fornecedores de Serviços podem armazenar e aceder a dados pessoais como cookies, identificadores do dispositivo ou outras tecnologias semelhantes existentes no seu dispositivo e processar estes dados para personalizar conteúdos e anúncios, assim como funcionalidades nas redes sociais e análise de tráfego.

  • Armazenar e/ou aceder a informações no seu dispositivo

    Os cookies, identificadores do dispositivo ou outras informações podem ser armazenados ou acedidos no seu dispositivo, para os fins acima indicados.

  • Anúncios e conteúdos personalizados, medição de anúncios e conteúdos, dados sobre o público-alvo e desenvolvimento de produtos

    Os anúncios e os conteúdos podem ser personalizados com base num perfil. Podem ser adicionados dados adicionais para uma maior personalização dos anúncios e dos conteúdos. A eficácia dos anúncios e dos conteúdos pode ser medida. Podem ser obtidas informações sobre o público que visualizou os anúncios e os conteúdos. Estes dados podem ser usados para desenvolver ou melhorar sistemas, softwares ou a experiência do utilizador.

Ao clicar em "Eu concordo”, permitirá o uso de cookies, identificadores do dispositivo e web beacons mencionados ou outras tecnologias semelhantes. As configurações do navegador do seu dispositivo podem ser alteradas.

Para certos fins, podem ser invocados interesses legítimos ao invés de consentimento. Pode ler mais informação sobre este assunto na nossa Política de Privacidade e Cookies.